Pittsburgh Allegheny Co., PA

9:07 AM EST on December 13, 2017 (GMT -0500)
Allegheny County

Weather History for KAGC - October, 2012

Change the Weather History Date:

Tuesday, October 16, 2012

  Actual Average Record
Temperature  
Mean Temperature 50 °F -  
Max Temperature 55 °F 64 °F 79 °F (1992)
Min Temperature 44 °F 42 °F 36 °F (2006)
Degree Days  
Heating Degree Days 16    
Moisture  
Dew Point 39 °F    
Average Humidity 71    
Maximum Humidity 87    
Minimum Humidity 47    
Precipitation  
Precipitation 0.00 in - - ()
Sea Level Pressure  
Sea Level Pressure 29.93 in    
Wind  
Wind Speed 5 mph (West)    
Max Wind Speed 8 mph    
Max Gust Speed -    
Visibility 10 miles    
Events      
Averages and records for this station are not official NWS values.
T = Trace of Precipitation, MM = Missing Value Source: NWS Daily Summary

Daily Weather History Graph

Daily Weather History Graph

Search for Another Location

Airport or City:

Trip Planner

Search our weather history database for the weather conditions in past years. The results will help you decide how hot, cold, wet, or windy it might be!

Date:

Astronomy

Oct. 16, 2012 Rise Set
Actual Time 7:32 AM EDT 6:37 PM EDT
Civil Twilight 7:04 AM EDT 7:05 PM EDT
Nautical Twilight 6:32 AM EDT 7:36 PM EDT
Astronomical Twilight 6:01 AM EDT 8:08 PM EDT
Moon 8:53 AM EDT (10/16) 7:20 PM EDT (10/16)
Length of Visible Light 12h 00m
Length of Day
11h 05m
New Moon, 2% of the Moon is Illuminated
Oct 16
New Moon
Oct 21
First Quarter
Oct 29
Full
Nov 6
Last Quarter
Nov 13
New

Hourly Weather History & Observations

Time (EDT) Temp. Windchill Dew Point Humidity Pressure Visibility Wind Dir Wind Speed Gust Speed Precip Events Conditions
12:53 AM 48.0 °F - 43.0 °F 83% 29.90 in 10.0 mi WNW 5.8 mph - N/A   Overcast
1:27 AM 48.2 °F - 42.8 °F 82% 29.89 in 10.0 mi WNW 8.1 mph - N/A   Overcast
1:53 AM 48.0 °F - 43.0 °F 83% 29.91 in 10.0 mi NW 3.5 mph - N/A   Overcast
2:53 AM 48.0 °F - 43.0 °F 83% 29.92 in 10.0 mi Variable 3.5 mph - 0.00 in   Overcast
3:00 AM 48.2 °F - 42.8 °F 82% 29.90 in 10.0 mi NW 3.5 mph - N/A   Overcast
3:12 AM 48.2 °F - 42.8 °F 82% 29.90 in 10.0 mi WNW 3.5 mph - N/A   Overcast
3:21 AM 46.4 °F 45.2 °F 42.8 °F 87% 29.90 in 10.0 mi WNW 3.5 mph - N/A   Overcast
3:53 AM 46.4 °F 44.3 °F 42.8 °F 87% 29.90 in 10.0 mi WNW 4.6 mph - N/A   Overcast
4:53 AM 46.9 °F - 42.1 °F 83% 29.93 in 10.0 mi WNW 5.8 mph - N/A   Overcast
5:53 AM 46.0 °F 43.9 °F 41.0 °F 83% 29.94 in 10.0 mi West 4.6 mph - N/A   Overcast
6:53 AM 46.0 °F 43.1 °F 41.0 °F 83% 29.96 in 10.0 mi West 5.8 mph - N/A   Overcast
7:53 AM 44.6 °F 41.4 °F 39.2 °F 81% 29.94 in 10.0 mi West 5.8 mph - N/A   Overcast
8:53 AM 46.0 °F 43.1 °F 39.9 °F 79% 30.00 in 10.0 mi West 5.8 mph - N/A   Overcast
9:53 AM 46.9 °F - 39.0 °F 74% 30.00 in 10.0 mi West 8.1 mph - N/A   Overcast
10:53 AM 48.9 °F - 39.0 °F 69% 29.99 in 10.0 mi Variable 6.9 mph - N/A   Overcast
11:53 AM 50.0 °F - 37.9 °F 63% 30.00 in 10.0 mi Variable 4.6 mph - N/A   Overcast
12:53 PM 50.0 °F - 37.0 °F 61% 29.99 in 10.0 mi Variable 6.9 mph - N/A   Overcast
1:53 PM 52.0 °F - 36.0 °F 54% 29.98 in 10.0 mi Variable 5.8 mph - N/A   Overcast
2:53 PM 54.0 °F - 37.0 °F 53% 29.95 in 10.0 mi Variable 3.5 mph - N/A   Overcast
3:53 PM 55.9 °F - 36.0 °F 47% 29.94 in 10.0 mi NW 5.8 mph - N/A   Clear
4:53 PM 55.9 °F - 36.0 °F 47% 29.91 in 10.0 mi West 5.8 mph - N/A   Clear
5:53 PM 55.0 °F - 35.1 °F 47% 29.91 in 10.0 mi Calm Calm - N/A   Clear
6:53 PM 53.1 °F - 35.1 °F 50% 29.91 in 10.0 mi South 3.5 mph - N/A   Clear
7:53 PM 52.0 °F - 35.1 °F 53% 29.92 in 10.0 mi South 4.6 mph - N/A   Clear
8:53 PM 50.0 °F - 37.0 °F 61% 29.92 in 10.0 mi SE 3.5 mph - N/A   Clear
9:53 PM 46.9 °F - 37.0 °F 68% 29.91 in 10.0 mi SSE 5.8 mph - N/A   Clear
10:53 PM 45.0 °F 41.8 °F 37.9 °F 76% 29.91 in 10.0 mi SSE 5.8 mph - N/A   Clear
11:53 PM 45.0 °F 42.6 °F 37.9 °F 76% 29.93 in 10.0 mi South 4.6 mph - N/A   Clear